Location: Cambroso
(45.2833°N, 12.0850°E)
Time: 19:09:36
(UTC+00:00)

Meteor 2-5 Rocket - Pass Details

Date: 21 January 2021
Orbit: 833 x 911 km, 81.2° (Epoch: 04 March)

Event Time Altitude Azimuth Distance (km) Brightness Sun altitude
Rises 16:59:55 0° 201° (SSW) 3,398 7.5 -10.0°
Reaches altitude 10° 17:02:23 10° 205° (SSW) 2,458 6.8 -10.4°
Maximum altitude 17:07:50 58° 284° (WNW) 977 4.4 -11.3°
Drops below altitude 10° 17:13:18 10° 3° (N) 2,454 5.9 -12.2°
Sets 17:15:46 0° 8° (N) 3,392 6.6 -12.6°
